sat.trackr.live / text

‹ back to catalog

STARLINK-33752

NORAD 63580 · 2025-076M

PAYLOAD ACTIVE UNKNOWN

§ Identity

Operator
Country
US
Launch date
2025-04-14
Launch site
AFETR
Launch vehicle
Mass (kg)
RCS (m²)

Purposes: comms

External: N2YO · Heavens-Above · Gunter

§ Orbital elements

Epoch: 2026-05-24T15:11:47.862240Z

Period
94.27 min
Inclination
42.9998°
Eccentricity
0.0001772
Mean motion
15.27593828 rev/d
Perigee alt
481.8 km
Apogee alt
484.2 km
Semi-major
6,861.1 km
B*
5.1674e-4
RAAN
252.9242°
Arg perigee
275.9302°
Mean anomaly
84.1348°
Rev number
6,344

§ Raw data

STARLINK-337521 63580U 25076M   26144.63319285  .00013990  00000+0  51674-3 0  99932 63580  42.9998 252.9242 0001772 275.9302  84.1348 15.27593828 63441

JSON: /api/v1/satellites/63580 · /tle

For live sub-satellite position, see the globe view (requires WebGL).

§ Visibility from observer

Set your observer location to see the next 7 days of passes ≥ 10°. The values pass through the URL so the page stays shareable.

No JS? Fill the form by hand. The geolocation button needs JavaScript.